Westhampton Beach, NY

6:02 PM EDT on August 21, 2017 (GMT -0400)
The Gabreski

Weather History for KFOK - December, 2012

Change the Weather History Date:

Sunday, December 30, 2012

  Actual Average Record
Temperature  
Mean Temperature 31 °F -  
Max Temperature 34 °F 39 °F 55 °F (2003)
Min Temperature 28 °F 23 °F 6 °F (2010)
Degree Days  
Heating Degree Days 34    
Moisture  
Dew Point 21 °F    
Average Humidity 66    
Maximum Humidity 92    
Minimum Humidity 49    
Precipitation  
Precipitation 0.00 in - - ()
Sea Level Pressure  
Sea Level Pressure 29.82 in    
Wind  
Wind Speed 15 mph (NW)    
Max Wind Speed 24 mph    
Max Gust Speed 33 mph    
Visibility 10 miles    
Events Snow    
Averages and records for this station are not official NWS values.
T = Trace of Precipitation, MM = Missing Value Source: NWS Daily Summary

Daily Weather History Graph

Daily Weather History Graph

Search for Another Location

Airport or City:

Trip Planner

Search our weather history database for the weather conditions in past years. The results will help you decide how hot, cold, wet, or windy it might be!

Date:

Astronomy

Dec. 30, 2012 Rise Set
Actual Time 7:14 AM EST 4:32 PM EST
Civil Twilight 6:43 AM EST 5:03 PM EST
Nautical Twilight 6:09 AM EST 5:37 PM EST
Astronomical Twilight 5:35 AM EST 6:10 PM EST
Moon 7:01 PM EST (12/30) 8:21 AM EST (12/30)
Length of Visible Light 10h 19m
Length of Day
9h 17m
Waning Gibbous, 95% of the Moon is Illuminated
Dec 30
Waning Gibbous
Jan 4
Last Quarter
Jan 11
New
Jan 18
First Quarter
Jan 26
Full

Hourly Weather History & Observations

Time (EST) Temp. Windchill Dew Point Humidity Pressure Visibility Wind Dir Wind Speed Gust Speed Precip Events Conditions
12:53 AM 33.1 °F 24.4 °F 30.9 °F 92% 29.52 in 3.0 mi NW 11.5 mph - 0.00 in Snow Light Snow
1:12 AM 33.8 °F 24.3 °F 30.2 °F 87% 29.53 in 9.0 mi NW 13.8 mph - 0.00 in   Overcast
1:53 AM 33.1 °F 22.6 °F 28.0 °F 82% 29.56 in 10.0 mi NW 16.1 mph 26.5 mph 0.00 in   Overcast
2:53 AM 32.0 °F 22.1 °F 26.1 °F 79% 29.60 in 10.0 mi NW 13.8 mph 21.9 mph N/A   Mostly Cloudy
3:53 AM 30.0 °F 21.1 °F 25.0 °F 82% 29.62 in 10.0 mi WNW 10.4 mph - N/A   Clear
4:53 AM 30.9 °F 21.2 °F 25.0 °F 79% 29.64 in 10.0 mi WNW 12.7 mph 20.7 mph N/A   Scattered Clouds
5:06 AM 30.2 °F 20.8 °F 24.8 °F 80% 29.64 in 10.0 mi WNW 11.5 mph 18.4 mph N/A   Mostly Cloudy
5:26 AM 30.2 °F 20.2 °F 24.8 °F 80% 29.65 in 10.0 mi WNW 12.7 mph - N/A   Scattered Clouds
5:53 AM 30.9 °F 19.4 °F 24.1 °F 76% 29.67 in 10.0 mi WNW 17.3 mph 26.5 mph N/A   Clear
6:53 AM 28.9 °F 16.9 °F 21.0 °F 72% 29.70 in 10.0 mi WNW 17.3 mph 26.5 mph N/A   Clear
7:53 AM 30.0 °F 18.7 °F 21.0 °F 69% 29.74 in 10.0 mi NW 16.1 mph 26.5 mph N/A   Clear
8:53 AM 30.9 °F 20.2 °F 21.0 °F 67% 29.79 in 10.0 mi NW 15.0 mph 25.3 mph N/A   Partly Cloudy
9:53 AM 30.9 °F 18.7 °F 21.0 °F 67% 29.83 in 10.0 mi NW 19.6 mph 25.3 mph N/A   Overcast
10:53 AM 32.0 °F 19.8 °F 21.0 °F 64% 29.85 in 10.0 mi NW 20.7 mph 31.1 mph N/A   Clear
11:53 AM 32.0 °F 19.2 °F 21.0 °F 64% 29.84 in 10.0 mi WNW 23.0 mph 29.9 mph N/A   Mostly Cloudy
12:53 PM 34.0 °F 22.4 °F 21.0 °F 59% 29.83 in 10.0 mi NW 20.7 mph 28.8 mph N/A   Clear
1:53 PM 34.0 °F 22.1 °F 21.0 °F 59% 29.83 in 10.0 mi WNW 21.9 mph 32.2 mph N/A   Partly Cloudy
2:53 PM 34.0 °F 23.0 °F 18.0 °F 52% 29.87 in 10.0 mi WNW 18.4 mph 33.4 mph N/A   Clear
3:53 PM 33.1 °F 21.9 °F 16.0 °F 50% 29.91 in 10.0 mi WNW 18.4 mph 33.4 mph N/A   Clear
4:53 PM 32.0 °F 21.6 °F 15.1 °F 50% 29.95 in 10.0 mi WNW 15.0 mph 26.5 mph N/A   Clear
5:53 PM 30.9 °F 19.4 °F 15.1 °F 52% 29.99 in 10.0 mi WNW 17.3 mph 27.6 mph N/A   Clear
6:53 PM 30.0 °F 16.3 °F 16.0 °F 56% 30.04 in 10.0 mi WNW 24.2 mph 28.8 mph N/A   Clear
7:53 PM 30.0 °F 20.0 °F 15.1 °F 54% 30.06 in 10.0 mi WNW 12.7 mph 25.3 mph N/A   Clear
8:53 PM 30.0 °F 17.5 °F 14.0 °F 51% 30.07 in 10.0 mi NW 19.6 mph 27.6 mph N/A   Clear
9:53 PM 28.9 °F 16.1 °F 14.0 °F 54% 30.10 in 10.0 mi WNW 19.6 mph 28.8 mph N/A   Clear
10:53 PM 28.9 °F 18.6 °F 12.9 °F 51% 30.12 in 10.0 mi NW 12.7 mph 25.3 mph N/A   Clear
11:53 PM 28.9 °F 19.2 °F 12.0 °F 49% 30.12 in 10.0 mi NNW 11.5 mph 27.6 mph N/A   Clear